15 daagse weersverwachting Salerno (IT)

  • Overzicht
  • Per uur
  • 15 dagen
  • Extra
  • Vergelijk
  • Kaarten
  • Dagkaart
  • Meer »
  • Info
  • Statistieken
  • Directe link
    Temp 6h Neerslag Wind  
 06:45     16:45    Daglengte: 10:00 Vandaag
13:00
16°
66.1 mm
10
19:00
14°
70.7 mm
9
warningclass
 06:46     16:45    Daglengte: 9:59 Morgen
01:00
14°
75.5 mm
8
07:00
15°
85.9 mm
6
warningclass
13:00
16°
88.9 mm
5
19:00
14°
45.2 mm
3
 06:48     16:44    Daglengte: 9:56 Donderdag 14 Nov
01:00
14°
 
3
07:00
14°
106.5 mm
5
13:00
16°
99.8 mm
4
19:00
14°
48.9 mm
3
 06:49     16:43    Daglengte: 9:54 Vrijdag 15 Nov
01:00
15°
40.3 mm
4
Locatie info
Region: Campania
Latitude: 40.6735°N
Longitude: 14.7713°E
46 masl
Postcode: 84123
Temp/Neerslag /Baro Onweer/Dauwpunt
    Temp Baro 1h Neerslag Dauwpunt Wind UV Bewolking  
 06:45     16:45    Daglengte: 10:00 Vandaag
09:00
16°
994.7 hPa 19.9 mm
48%
13.8°
2
Windvlaag: -0.6 km/h
90%
10:00
16°
994.4 hPa 9.7 mm
81%
14.2°
3
Windvlaag: -0.8 km/h
90%
11:00
17°
994.1 hPa 12.2 mm
75%
15.0°
4
Windvlaag: -0 km/h
79%
12:00
17°
994.2 hPa 13.1 mm
79%
14.3°
8
Windvlaag: 4.9 km/h
79%
13:00
16°
995.0 hPa 11.2 mm
82%
14.2°
10
Windvlaag: 7.9 km/h
56%
14:00
16°
995.2 hPa 9.6 mm
79%
12.3°
10
Windvlaag: 8.3 km/h
54%
15:00
16°
995.3 hPa 9.3 mm
72%
11.2°
10
Windvlaag: 7.9 km/h
37%
16:00
15°
995.5 hPa 13.4 mm
71%
12.2°
9
Windvlaag: 8 km/h
49%
17:00
15°
995.6 hPa 13.4 mm
68%
11.5°
8
Windvlaag: 6.9 km/h
33%
18:00
15°
996.1 hPa 13.9 mm
71%
12.5°
9
Windvlaag: 6.6 km/h
59%
19:00
14°
996.5 hPa 11.1 mm
77%
12.6°
9
Windvlaag: 7.1 km/h
74% warningclass
20:00
14°
996.6 hPa 12.1 mm
77%
12.6°
9
Windvlaag: 7.1 km/h
76% warningclass
21:00
14°
996.7 hPa 12.3 mm
70%
12.6°
9
Windvlaag: 7.7 km/h
73% warningclass
22:00
14°
996.4 hPa 11.4 mm
69%
12.4°
8
Windvlaag: 8.1 km/h
61%
23:00
14°
995.8 hPa 11.5 mm
71%
12.3°
8
Windvlaag: 6.1 km/h
53%
 06:46     16:45    Daglengte: 9:59 Morgen
00:00
14°
995.2 hPa 16.3 mm
72%
12.4°
8
Windvlaag: 4.5 km/h
68%
01:00
14°
994.6 hPa 11.9 mm
77%
12.6°
8
Windvlaag: 3.6 km/h
77%
02:00
14°
994.1 hPa 12.8 mm
81%
13.1°
8
Windvlaag: 3.2 km/h
90% warningclass
03:00
14°
993.6 hPa 14.3 mm
82%
13.3°
9
Windvlaag: 3.4 km/h
90% warningclass
04:00
14°
993.2 hPa 14.7 mm
82%
13.4°
9
Windvlaag: 2.5 km/h
89% warningclass
05:00
15°
993.2 hPa 14.3 mm
82%
13.7°
9
Windvlaag: 2.5 km/h
88% warningclass
06:00
14°
993.3 hPa 14.9 mm
79%
13.6°
7
Windvlaag: 2.5 km/h
82% warningclass
07:00
15°
993.6 hPa 14.9 mm
80%
13.3°
6
Windvlaag: 2.5 km/h
85% warningclass
08:00
15°
995.0 hPa 15.3 mm
81%
14.1°
6
Windvlaag: 4.8 km/h
87%
09:00
15°
996.1 hPa 16.3 mm
81%
14.2°
7
Windvlaag: 6.4 km/h
75%
10:00
16°
997.0 hPa 15.2 mm
81%
14.5°
7
Windvlaag: 6.2 km/h
71%
11:00
16°
997.8 hPa 14.3 mm
81%
14.3°
7
Windvlaag: 5.9 km/h
65%
12:00
16°
998.4 hPa 14.1 mm
81%
13.2°
6
Windvlaag: 6.4 km/h
66%
13:00
16°
999.5 hPa 13.6 mm
81%
12.3°
5
Windvlaag: 2.4 km/h
64%
14:00
16°
1000.4 hPa 13.3 mm
81%
12.6°
4
Windvlaag: 0.8 km/h
56%
15:00
16°
1001.2 hPa 13.2 mm
81%
11.6°
4
Windvlaag: 1.3 km/h
32%
16:00
16°
1002.3 hPa 18.7 mm
82%
10.1°
5
Windvlaag: 0.5 km/h
20%
17:00
15°
1003.7 hPa
72%
9.2°
4
Windvlaag: 0.6 km/h
11%
18:00
14°
1004.9 hPa
27%
8.1°
4
Windvlaag: 0.5 km/h
12%
19:00
14°
1005.5 hPa
22%
7.7°
3
Windvlaag: 1.2 km/h
16%
20:00
14°
1006.0 hPa
28%
8.3°
2
Windvlaag: 1.4 km/h
49%
21:00
14°
1006.4 hPa
19%
8.4°
3
Windvlaag: 2.5 km/h
44%
22:00
15°
1006.6 hPa
31%
8.5°
3
Windvlaag: 2.5 km/h
60%
23:00
15°
1006.6 hPa
39%
8.7°
3
Windvlaag: 2 km/h
66%
 06:48     16:44    Daglengte: 9:56 Donderdag 14 Nov
00:00
14°
1006.5 hPa
73%
9.3°
3
Windvlaag: 2.2 km/h
82%
01:00
14°
1006.3 hPa
77%
9.7°
3
Windvlaag: 2.7 km/h
73%
02:00
14°
1006.3 hPa 18.4 mm
81%
11.1°
3
Windvlaag: 1.9 km/h
85%
03:00
13°
1005.9 hPa 19.4 mm
82%
12.5°
3
Windvlaag: 1.1 km/h
91%
04:00
13°
1005.7 hPa 21.4 mm
100%
13.5°
4
Windvlaag: 0.3 km/h
99%
05:00
14°
1005.8 hPa 15.6 mm
100%
13.4°
3
Windvlaag: 1.5 km/h
95%
06:00
14°
1005.9 hPa 16.0 mm
100%
12.9°
5
Windvlaag: 1 km/h
100%
07:00
14°
1006.4 hPa 15.6 mm
100%
13.2°
5
Windvlaag: 2 km/h
98%
08:00
14°
1006.7 hPa 15.9 mm
100%
13.1°
4
Windvlaag: 1.4 km/h
99%
09:00
14°
1007.0 hPa 16.1 mm
100%
13.0°
4
Windvlaag: 1.9 km/h
97%
10:00
14°
1007.1 hPa 15.3 mm
100%
13.0°
4
Windvlaag: 1.7 km/h
89%
11:00
15°
1006.9 hPa 15.5 mm
100%
13.2°
4
Windvlaag: 2.5 km/h
88%
12:00
15°
1006.5 hPa 15.3 mm
100%
13.0°
4
Windvlaag: 3.1 km/h
89%
13:00
16°
1006.0 hPa 21.7 mm
90%
13.0°
4
Windvlaag: 2.7 km/h
87%
14:00
15°
1005.9 hPa 24.5 mm
86%
13.5°
5
Windvlaag: 2.4 km/h
91%
15:00
15°
1005.9 hPa 24.4 mm
83%
13.2°
4
Windvlaag: 2.4 km/h
87%
16:00
15°
1005.9 hPa
27%
12.3°
3
Windvlaag: 1.2 km/h
73%
17:00
15°
1006.1 hPa
21%
12.7°
3
Windvlaag: 0.4 km/h
61%
18:00
15°
1006.3 hPa
21%
13.2°
3
Windvlaag: 0.8 km/h
78%
19:00
14°
1006.7 hPa
22%
14.0°
3
Windvlaag: 0.3 km/h
42%
20:00
14°
1007.2 hPa
23%
13.7°
3
Windvlaag: 0.8 km/h
25%
21:00
14°
1007.5 hPa
24%
13.2°
3
Windvlaag: 1.2 km/h
60%
22:00
14°
1007.8 hPa
29%
13.0°
3
Windvlaag: 3.7 km/h
57%
23:00
14°
1008.1 hPa
32%
12.6°
4
Windvlaag: 2.9 km/h
55%
 06:49     16:43    Daglengte: 9:54 Vrijdag 15 Nov
00:00
14°
1008.4 hPa
90%
12.3°
4
Windvlaag: 2.4 km/h
46%
01:00
15°
1008.7 hPa 40.3 mm
94%
11.9°
4
Windvlaag: 1.5 km/h
40%
02:00
15°
1009.0 hPa 40.2 mm
94%
12.2°
4
Windvlaag: 7.5 km/h
49%
03:00
14°
1009.0 hPa 40.3 mm
92%
12.3°
4
Windvlaag: 8.6 km/h
62%
04:00
14°
1009.1 hPa
81%
12.3°
4
Windvlaag: 8.6 km/h
67%
05:00
14°
1009.2 hPa
24%
12.3°
4
Windvlaag: 9 km/h
54%
06:00
14°
1009.3 hPa
74%
12.3°
4
Windvlaag: 9.6 km/h
54%
07:00
14°
1009.5 hPa
78%
12.3°
4
Windvlaag: 1.5 km/h
94%
Temp/Neerslag /Baro Onweer/Dauwpunt
    Temp Baro Neerslag Dauwpunt Wind Bewolking  
 06:45     16:45    Daglengte: 10:00 Vandaag
10:00
16°
994.4 hPa 29.6 mm 14.2°
3
90%
13:00
16°
995.0 hPa 36.5 mm 14.2°
10
56%
16:00
15°
995.5 hPa 32.3 mm 12.2°
9
49%
19:00
14°
996.5 hPa 38.3 mm 12.6°
9
74% warningclass
22:00
14°
996.4 hPa 35.8 mm 12.4°
8
61%
 06:46     16:45    Daglengte: 9:59 Morgen
01:00
14°
994.6 hPa 39.7 mm 12.6°
8
77%
04:00
14°
993.2 hPa 41.8 mm 13.4°
9
89% warningclass
07:00
15°
993.6 hPa 44.1 mm 13.3°
6
85% warningclass
10:00
16°
997.0 hPa 46.8 mm 14.5°
7
71%
13:00
16°
999.5 hPa 42.1 mm 12.3°
5
64%
16:00
16°
1002.3 hPa 45.2 mm 10.1°
5
20%
19:00
14°
1005.5 hPa   7.7°
3
16%
22:00
15°
1006.6 hPa   8.5°
3
60%
 06:48     16:44    Daglengte: 9:56 Donderdag 14 Nov
01:00
14°
1006.3 hPa   9.7°
3
73%
04:00
13°
1005.7 hPa 59.3 mm 13.5°
4
99%
07:00
14°
1006.4 hPa 47.2 mm 13.2°
5
98%
10:00
14°
1007.1 hPa 47.3 mm 13.0°
4
89%
13:00
16°
1006.0 hPa 52.5 mm 13.0°
4
87%
16:00
15°
1005.9 hPa 48.9 mm 12.3°
3
73%
19:00
14°
1006.7 hPa   14.0°
3
42%
22:00
14°
1007.8 hPa   13.0°
3
57%
 06:49     16:43    Daglengte: 9:54 Vrijdag 15 Nov
01:00
15°
1008.7 hPa 40.3 mm 11.9°
4
40%
04:00
14°
1009.1 hPa 80.5 mm 12.3°
4
67%
07:00
14°
1009.5 hPa   12.3°
4
94%
10:00
17°
1009.8 hPa 49.4 mm 13.3°
7
86%
13:00
18°
1009.8 hPa 49.4 mm 13.8°
8
82%
16:00
18°
1010.1 hPa 49.5 mm 14.9°
7
77%
19:00
17°
1010.5 hPa 49.6 mm 15.8°
5
72%
22:00
17°
1011.7 hPa 49.8 mm 15.6°
5
49%
 06:50     16:42    Daglengte: 9:52 Zaterdag 16 Nov
01:00
17°
1012.9 hPa 50.1 mm 15.3°
6
26%
04:00
17°
1013.4 hPa 50.9 mm 14.9°
5
58%
07:00
17°
1013.9 hPa 51.1 mm 14.3°
3
90%
10:00
19°
1013.8 hPa 51.1 mm 14.5°
4
61%
13:00
20°
1013.5 hPa 51.2 mm 14.6°
5
32%
16:00
19°
1012.6 hPa 51.3 mm 13.6°
4
17%
19:00
18°
1011.8 hPa 51.6 mm 12.6°
4
2%
22:00
17°
1010.7 hPa 51.6 mm 11.5°
3
2%
 06:51     16:41    Daglengte: 9:50 Zondag 17 Nov
01:00
17°
1009.5 hPa 51.6 mm 10.5°
3
1%
04:00
17°
1008.2 hPa 52.7 mm 9.9°
4
1%
07:00
16°
1007.2 hPa 60.3 mm 8.9°
4
1%
10:00
18°
1006.6 hPa 60.4 mm 11.0°
6
33%
13:00
20°
1005.8 hPa 62.6 mm 13.3°
9
64%
16:00
18°
1007.2 hPa 63.3 mm 12.3°
7
74%
19:00
16°
1008.7 hPa 63.4 mm 11.2°
5
84%
22:00
14°
1010.0 hPa 63.4 mm 11.4°
3
76%
 06:52     16:40    Daglengte: 9:48 Maandag 18 Nov
01:00
13°
1011.2 hPa 63.5 mm 11.4°
2
69%
04:00
13°
1012.7 hPa 63.8 mm 11.5°
2
75%
07:00
12°
1014.2 hPa 64.0 mm 11.7°
2
81%
10:00
14°
1015.4 hPa 64.2 mm 11.0°
3
65%
13:00
15°
1016.4 hPa 64.5 mm 9.9°
3
49%
16:00
14°
1017.1 hPa 64.5 mm 10.4°
3
69%
19:00
14°
1017.9 hPa 64.6 mm 10.7°
2
88%
22:00
13°
1018.0 hPa 64.6 mm 10.3°
1
83%
 06:53     16:40    Daglengte: 9:47 Dinsdag 19 Nov
01:00
12°
1018.1 hPa 64.7 mm 9.9°
2
78%
04:00
12°
1018.0 hPa 65.4 mm 9.5°
2
57%
07:00
12°
1018.0 hPa 133.1 mm 9.0°
3
36%
13:00
17°
1016.7 hPa 143.7 mm 10.5°
5
39%
19:00
14°
1016.0 hPa 150.7 mm 11.1°
2
49%
 06:55     16:39    Daglengte: 9:44 Woensdag 20 Nov
01:00
12°
1016.1 hPa 152.5 mm 11.8°
2
92%
07:00
12°
1015.3 hPa 154.3 mm 11.8°
1
90%
13:00
15°
1014.8 hPa 160.7 mm 13.1°
2
47%
19:00
13°
1015.7 hPa 172.2 mm 12.9°
2
55%
 06:56     16:38    Daglengte: 9:42 Donderdag 21 Nov
01:00
13°
1016.6 hPa 175.6 mm 12.3°
1
44%
07:00
11°
1017.9 hPa 175.6 mm 11.4°
1
82%
13:00
16°
1017.8 hPa 175.6 mm 10.7°
1
91%
19:00
14°
1015.6 hPa 175.9 mm 10.1°
3
1%
 06:57     16:38    Daglengte: 9:41 Vrijdag 22 Nov
01:00
13°
1015.0 hPa 176.2 mm 9.4°
2
1%
07:00
12°
1011.1 hPa 0.2 mm 9.5°
1
51%
13:00
17°
1011.1 hPa 0.5 mm 9.8°
1
44%
19:00
13°
1012.1 hPa 0.6 mm 9.8°
1
39%
 06:58     16:37    Daglengte: 9:39 Zaterdag 23 Nov
01:00
12°
1013.0 hPa 0.1 mm 9.3°
1
34%
07:00
11°
1013.0 hPa 0.3 mm 9.1°
1
36%
13:00
17°
1012.4 hPa 0.2 mm 9.9°
2
38%
19:00
13°
1012.4 hPa 0.7 mm 10.1°
1
46%
 06:59     16:37    Daglengte: 9:38 Zondag 24 Nov
01:00
13°
1012.3 hPa 0.7 mm 10.1°
2
45%
07:00
12°
1011.9 hPa 0.3 mm 10.0°
2
48%
13:00
17°
1011.6 hPa 0.7 mm 10.3°
2
52%
19:00
14°
1012.1 hPa 0.2 mm 10.3°
1
56%
 07:00     16:36    Daglengte: 9:36 Maandag 25 Nov
01:00
13°
1012.0 hPa 0.2 mm 10.4°
1
60%
07:00
12°
1011.1 hPa 0.3 mm 10.0°
2
59%
13:00
17°
1009.8 hPa 0.9 mm 10.9°
2
55%
19:00
14°
1009.1 hPa 0.7 mm 10.8°
1
60%
 07:01     16:36    Daglengte: 9:35 Dinsdag 26 Nov
01:00
13°
1008.7 hPa 1.9 mm 10.9°
1
59%
07:00
13°
1008.1 hPa 1.3 mm 10.5°
1
58%
13:00
17°
1007.7 hPa 1.5 mm 10.7°
2
51%
19:00
14°
1008.4 hPa 0.8 mm 10.5°
1
50%
 07:02     16:35    Daglengte: 9:33 Woensdag 27 Nov
01:00
13°
1009.3 hPa 1.3 mm 10.6°
1
56%
07:00
12°
1010.1 hPa 1.4 mm 10.0°
1
54%
  CAPE Lifted Index Hail Supercell Tornado SRH 3km CL BTM PRES CL TOP PRES Swiss DWD icon SMHI TS
 06:45     16:45    Daglengte: 10:00 Vandaag
09:00 0 J/kg 4.4 K 0 % 0 % 0 % 0 m²/s² 0 0 4.58 3
10:00 0 J/kg 4.4 K 0 % 0 % 0 % 0 m²/s² 0 0 5.3 61
11:00 34 J/kg 2.9 K 0 % 0 % 0 % 0 m²/s² 0 0 4.82 3
12:00 80 J/kg 2.8 K 0 % 0 % 0 % 0 m²/s² 0 0 4.06 3
13:00 487 J/kg 0.0 K 0 % 0 % 0 % 0 m²/s² 0 0 0.99 80
14:00 421 J/kg 0.9 K 0 % 0 % 0 % 0 m²/s² 0 0 3.93 80
15:00 373 J/kg -1.1 K 0 % 0 % 0 % 0 m²/s² 0 0 1.69 80
16:00 397 J/kg -1.5 K 0 % 0 % 0 % 0 m²/s² 0 0 0.54 80
17:00 525 J/kg -2.4 K 0 % 0 % 0 % 0 m²/s² 0 0 -0.48 80
18:00 628 J/kg -2.8 K 0 % 0 % 0 % 0 m²/s² 0 0 -1.45 80
19:00 721 J/kg -3.5 K 0 % 0 % 0 % 0 m²/s² 0 0 -2.12 95
20:00 808 J/kg -3.8 K 0 % 0 % 0 % 0 m²/s² 0 0 -2.99 80
21:00 666 J/kg -3.2 K 0 % 0 % 0 % 0 m²/s² 0 0 -2.84 80
22:00 438 J/kg -2.0 K 0 % 0 % 0 % 0 m²/s² 0 0 -1.1 80
23:00 326 J/kg -1.1 K 0 % 0 % 0 % 0 m²/s² 0 0 -0.68 80
 06:46     16:45    Daglengte: 9:59 Morgen
00:00 558 J/kg -1.5 K 0 % 0 % 0 % 0 m²/s² 0 0 -0.63 3
01:00 517 J/kg -2.0 K 0 % 0 % 0 % 0 m²/s² 0 0 -1.79 3
02:00 1018 J/kg -3.8 K 0 % 0 % 0 % 0 m²/s² 0 0 -3.11 80
03:00 982 J/kg -4.7 K 0 % 0 % 0 % 0 m²/s² 0 0 -4.4 80
04:00 769 J/kg -2.7 K 0 % 0 % 0 % 0 m²/s² 0 0 -2.49 80
05:00 1148 J/kg -4.3 K 0 % 0 % 0 % 0 m²/s² 0 0 -4.27 80
06:00 470 J/kg -1.4 K 0 % 0 % 0 % 0 m²/s² 0 0 1.57 95
07:00 329 J/kg -0.7 K 0 % 0 % 0 % 0 m²/s² 0 0 1.25 95
08:00 764 J/kg -2.2 K 0 % 0 % 0 % 0 m²/s² 0 0 -1.66 81
09:00 498 J/kg -1.5 K 0 % 0 % 0 % 0 m²/s² 0 0 -0.03 80
10:00 350 J/kg -1.0 K 0 % 0 % 0 % 0 m²/s² 0 0 0.53 80
11:00 541 J/kg -1.6 K 0 % 0 % 0 % 0 m²/s² 0 0 1.43 80
12:00 345 J/kg -0.8 K 0 % 0 % 0 % 0 m²/s² 0 0 4.69 3
13:00 60 J/kg 1.3 K 0 % 0 % 0 % 0 m²/s² 0 0 2.35 80
14:00 157 J/kg 0.7 K 0 % 0 % 0 % 0 m²/s² 0 0 13.12 80
15:00 39 J/kg 2.9 K 0 % 0 % 0 % 0 m²/s² 0 0 15.32 2
16:00 0 J/kg 5.4 K 0 % 0 % 0 % 0 m²/s² 0 0 17.79 80
17:00 0 J/kg 6.5 K 0 % 0 % 0 % 0 m²/s² 0 0 17 1
18:00 8 J/kg 5.6 K 0 % 0 % 0 % 0 m²/s² 0 0 13.34 2
19:00 8 J/kg 5.5 K 0 % 0 % 0 % 0 m²/s² 0 0 9.85 2
20:00 21 J/kg 5.3 K 0 % 0 % 0 % 0 m²/s² 0 0 6.89 3
21:00 41 J/kg 4.4 K 0 % 0 % 0 % 0 m²/s² 0 0 5.45 1
22:00 74 J/kg 3.6 K 0 % 0 % 0 % 0 m²/s² 0 0 4.65 3
23:00 90 J/kg 2.9 K 0 % 0 % 0 % 0 m²/s² 0 0 3.62 3
 06:48     16:44    Daglengte: 9:56 Donderdag 14 Nov
00:00 99 J/kg 2.1 K 0 % 0 % 0 % 0 m²/s² 0 0 2.55 3
01:00 134 J/kg 1.0 K 0 % 0 % 0 % 0 m²/s² 0 0 1.33 3
02:00 272 J/kg -0.6 K 0 % 0 % 0 % 0 m²/s² 0 0 0.27 3
03:00 141 J/kg 0.5 K 0 % 0 % 0 % 0 m²/s² 0 0 0.5 80
04:00 217 J/kg -0.6 K 0 % 0 % 0 % 0 m²/s² 0 0 -0.18 61
05:00 314 J/kg -0.8 K 0 % 0 % 0 % 0 m²/s² 0 0 -0.41 61
06:00 234 J/kg 0.0 K 0 % 0 % 0 % 0 m²/s² 0 0 0.24 61
07:00 82 J/kg 1.3 K 0 % 0 % 0 % 0 m²/s² 0 0 1.51 80
08:00 32 J/kg 0.0 K 0 % 0 % 0 % 0 m²/s² 0 0 0.42 80
09:00 216 J/kg -0.8 K 0 % 0 % 0 % 0 m²/s² 0 0 0.46 61
10:00 507 J/kg -1.4 K 0 % 0 % 0 % 0 m²/s² 0 0 0.13 61
11:00 402 J/kg -0.8 K 0 % 0 % 0 % 0 m²/s² 0 0 0.67 61
12:00 393 J/kg -1.1 K 0 % 0 % 0 % 0 m²/s² 0 0 -0.65 61
13:00 190 J/kg 0.1 K 0 % 0 % 0 % 0 m²/s² 0 0 0.43 3
14:00 422 J/kg -1.3 K 0 % 0 % 0 % 0 m²/s² 0 0 -0.55 3
15:00 403 J/kg -1.5 K 0 % 0 % 0 % 0 m²/s² 0 0 0.12 3
16:00 311 J/kg -0.9 K 0 % 0 % 0 % 0 m²/s² 0 0 3.87 3
17:00 51 J/kg 0.4 K 0 % 0 % 0 % 0 m²/s² 0 0 11.68 3
18:00 25 J/kg 0.6 K 0 % 0 % 0 % 0 m²/s² 0 0 9.87 2
19:00 32 J/kg 0.9 K 0 % 0 % 0 % 0 m²/s² 0 0 9.42 2
20:00 48 J/kg 0.9 K 0 % 0 % 0 % 0 m²/s² 0 0 9.09 2
21:00 33 J/kg 2.5 K 0 % 0 % 0 % 0 m²/s² 0 0 10.39 2
22:00 50 J/kg 2.7 K 0 % 0 % 0 % 0 m²/s² 0 0 10.62 2
23:00 16 J/kg 4.5 K 0 % 0 % 0 % 0 m²/s² 0 0 11.88 3
 06:49     16:43    Daglengte: 9:54 Vrijdag 15 Nov
00:00 5 J/kg 5.0 K 0 % 0 % 0 % 0 m²/s² 0 0 12.65 3
01:00 10 J/kg 4.8 K 0 % 0 % 0 % 0 m²/s² 0 0 12.72 3
02:00 32 J/kg 3.9 K 0 % 0 % 0 % 0 m²/s² 0 0 12.15 3
03:00 71 J/kg 2.6 K 0 % 0 % 0 % 0 m²/s² 0 0 10.88 3
04:00 75 J/kg 2.1 K 0 % 0 % 0 % 0 m²/s² 0 0 10.08 2
05:00 104 J/kg 1.5 K 0 % 0 % 0 % 0 m²/s² 0 0 9.45 2
06:00 107 J/kg 1.4 K 0 % 0 % 0 % 0 m²/s² 0 0 9.98 2
07:00 100 J/kg 1.8 K 0 % 0 % 0 % 0 m²/s² 0 0 10.74 3
Temp Baro Wind Neerslag
  EWN Forecast EWN WRFDA DWD ICON FMI HIRLAM MET Norway GFS
 06:45     16:45    Daglengte: 10:00 Vandaag
10:00 16.3° 994.4 hPa 2.9 m/s 29.6 mm 18.1° 995.0 hPa 7.2 m/s 118.8 mm 15.8° 996.2 hPa 1.3 m/s -0.1 mm 19.1° 993.3 hPa 6.4 m/s 0.0 mm 16.0° 994.5 hPa 2.3 m/s 4.3 mm 15.7° 995.7 hPa 3.9 m/s
13:00 16.1° 995.0 hPa 10.1 m/s 36.5 mm 17.2° 995.3 hPa 12.1 m/s 179.3 mm 16.2° 996.6 hPa 9.9 m/s 1.2 mm 17.1° 994.5 hPa 9.2 m/s 0.0 mm 15.8° 994.8 hPa 11.9 m/s 2.7 mm 16.4° 995.2 hPa 8.9 m/s
16:00 15.2° 995.5 hPa 9.3 m/s 32.3 mm 17.0° 994.5 hPa 12.8 m/s 185.0 mm 14.7° 997.5 hPa 8.1 m/s 2.2 mm 15.2° 995.6 hPa 9.0 m/s 0.0 mm 15.5° 995.3 hPa 10.7 m/s 3.1 mm 16.3° 996.1 hPa 12.4 m/s
19:00 14.5° 996.5 hPa 8.5 m/s 38.3 mm 16.3° 995.2 hPa 11.1 m/s 189.8 mm 13.5° 998.2 hPa 7.2 m/s 3.3 mm 14.6° 996.0 hPa 8.0 m/s 0.0 mm 14.5° 996.5 hPa 11.4 m/s 7.8 mm 15.7° 997.3 hPa 9.1 m/s
22:00 14.3° 996.4 hPa 8.5 m/s 35.8 mm 15.4° 992.4 hPa 11.8 m/s 206.2 mm 13.2° 997.3 hPa 6.9 m/s 4.2 mm 14.6° 994.7 hPa 8.5 m/s 0.0 mm 14.4° 996.9 hPa 9.6 m/s 11.7 mm 14.9° 996.3 hPa 5.4 m/s
 06:46     16:45    Daglengte: 9:59 Morgen
01:00 14.5° 994.6 hPa 8.1 m/s 39.7 mm 15.1° 987.8 hPa 11.8 m/s 230.6 mm 13.5° 995.0 hPa 5.6 m/s 1.5 mm 15.0° 992.9 hPa 8.6 m/s 0.0 mm 14.8° 995.7 hPa 9.3 m/s 5.5 mm 14.5° 994.3 hPa 3.9 m/s
04:00 14.3° 993.2 hPa 8.6 m/s 41.8 mm 16.0° 984.3 hPa 10.3 m/s 250.8 mm 13.1° 994.1 hPa 8.9 m/s 2.4 mm 15.4° 988.1 hPa 8.8 m/s 0.0 mm 14.4° 995.0 hPa 9.5 m/s 13.0 mm 13.9° 992.5 hPa 2.4 m/s
07:00 14.7° 993.6 hPa 6.5 m/s 44.1 mm 15.7° 992.3 hPa 6.7 m/s 266.6 mm 13.3° 994.9 hPa 6.4 m/s 4.4 mm 17.1° 989.5 hPa 5.0 m/s 0.0 mm 14.8° 993.9 hPa 9.1 m/s 11.0 mm 13.6° 993.9 hPa 2.1 m/s
10:00 15.8° 997.0 hPa 6.9 m/s 46.8 mm 17.5° 995.7 hPa 7.6 m/s 270.1 mm 14.3° 998.0 hPa 3.3 m/s 3.9 mm 17.6° 995.2 hPa 1.1 m/s 0.0 mm 15.7° 997.9 hPa 8.0 m/s 9.0 mm 16.1° 997.0 hPa 2.0 m/s
13:00 16.4° 999.5 hPa 5.4 m/s 42.1 mm 18.0° 999.3 hPa 8.4 m/s 271.0 mm 14.9° 1000.0 hPa 3.1 m/s 1.1 mm 18.8° 998.7 hPa 4.3 m/s 0.0 mm 16.3° 1000.1 hPa 6.9 m/s 2.6 mm 17.5° 999.5 hPa 5.7 m/s
16:00 15.7° 1002.3 hPa 4.5 m/s 45.2 mm 16.2° 1001.6 hPa 6.3 m/s 271.5 mm 14.6° 1002.3 hPa 1.1 m/s 1.0 mm 16.7° 1001.6 hPa 4.6 m/s 0.0 mm 15.8° 1003.1 hPa 6.8 m/s 0.6 mm 16.3° 1001.4 hPa 5.3 m/s
19:00 13.8° 1005.5 hPa 2.7 m/s 0.0 mm 14.7° 1003.9 hPa 2.6 m/s 271.6 mm 12.7° 1005.9 hPa 1.5 m/s 0.0 mm 14.6° 1005.3 hPa 2.4 m/s 0.0 mm 14.1° 1005.7 hPa 3.1 m/s 0.0 mm 16.0° 1004.2 hPa 4.2 m/s
22:00 14.7° 1006.6 hPa 2.7 m/s 0.0 mm 15.3° 1005.0 hPa 3.2 m/s 271.6 mm 12.1° 1006.6 hPa 0.3 m/s 0.0 mm 15.2° 1007.1 hPa 2.4 m/s 0.0 mm 15.4° 1006.7 hPa 4.2 m/s 0.0 mm 15.2° 1006.1 hPa 2.4 m/s
 06:48     16:44    Daglengte: 9:56 Donderdag 14 Nov
01:00 14.4° 1006.3 hPa 3.2 m/s 0.0 mm 16.2° 1004.3 hPa 6.3 m/s 271.9 mm 13.2° 1005.9 hPa 2.7 m/s 0.1 mm 15.6° 1007.4 hPa 3.0 m/s 0.0 mm 14.7° 1006.4 hPa 4.1 m/s 0.0 mm 15.4° 1006.0 hPa 3.4 m/s
04:00 13.4° 1005.7 hPa 3.7 m/s 59.3 mm 14.6° 1003.0 hPa 4.4 m/s 285.6 mm 12.7° 1005.8 hPa 2.1 m/s 3.2 mm 13.8° 1005.9 hPa 4.3 m/s 2.3 mm 14.3° 1004.8 hPa 4.3 m/s
07:00 13.7° 1006.4 hPa 4.6 m/s 47.2 mm 15.4° 1003.4 hPa 7.7 m/s 303.3 mm 12.8° 1006.7 hPa 2.5 m/s 4.1 mm 13.9° 1006.6 hPa 4.9 m/s 5.5 mm 14.9° 1005.1 hPa 6.4 m/s
10:00 14.3° 1007.1 hPa 4.4 m/s 47.3 mm 17.9° 1002.9 hPa 9.9 m/s 307.3 mm 12.6° 1007.9 hPa 1.2 m/s 5.5 mm 14.3° 1007.3 hPa 4.7 m/s 4.4 mm 14.8° 1005.9 hPa 5.6 m/s
13:00 15.7° 1006.0 hPa 4.4 m/s 52.5 mm 16.3° 1003.6 hPa 8.4 m/s 312.6 mm 14.5° 1006.7 hPa 0.4 m/s 1.6 mm 16.1° 1006.0 hPa 5.0 m/s 1.7 mm 14.6° 1006.0 hPa 3.7 m/s
16:00 15.4° 1005.9 hPa 3.0 m/s 48.9 mm 16.2° 1003.2 hPa 2.7 m/s 358.4 mm 14.8° 1007.1 hPa 0.1 m/s 0.1 mm 15.8° 1005.8 hPa 6.1 m/s 2.4 mm 15.3° 1006.1 hPa 4.1 m/s
19:00 14.4° 1006.7 hPa 3.2 m/s 0.0 mm 15.1° 1004.9 hPa 2.4 m/s 360.9 mm 14.1° 1007.9 hPa 0.5 m/s 0.0 mm 14.7° 1006.7 hPa 7.7 m/s 2.8 mm 14.6° 1007.9 hPa 1.7 m/s
22:00 14.4° 1007.8 hPa 3.3 m/s 0.0 mm 15.5° 1006.6 hPa 3.0 m/s 361.0 mm 13.6° 1009.0 hPa 0.6 m/s 0.0 mm 14.8° 1007.8 hPa 6.2 m/s 15.0° 1009.2 hPa 2.0 m/s
 06:49     16:43    Daglengte: 9:54 Vrijdag 15 Nov
01:00 14.5° 1008.7 hPa 3.8 m/s 40.3 mm 15.2° 1007.0 hPa 4.0 m/s 361.0 mm 13.2° 1009.3 hPa 1.6 m/s 0.1 mm 14.9° 1008.9 hPa 4.8 m/s 15.2° 1009.8 hPa 3.0 m/s
04:00 14.2° 1009.1 hPa 4.1 m/s 80.5 mm 16.4° 1006.1 hPa 5.9 m/s 361.2 mm 12.6° 1010.4 hPa 1.5 m/s 0.4 mm 14.2° 1009.2 hPa 4.3 m/s 15.5° 1009.7 hPa 3.9 m/s
07:00 13.7° 1009.5 hPa 3.9 m/s 0.0 mm 17.1° 1007.2 hPa 7.4 m/s 361.8 mm 12.4° 1011.0 hPa 1.4 m/s 0.1 mm 13.5° 1009.5 hPa 3.9 m/s 15.1° 1010.1 hPa 3.7 m/s
10:00 16.5° 1009.8 hPa 6.8 m/s 49.4 mm 16.6° 1009.7 hPa 7.1 m/s 16.0° 1010.6 hPa 3.2 m/s 49.4 mm
13:00 18.0° 1009.8 hPa 8.4 m/s 49.4 mm 18.1° 1009.8 hPa 8.7 m/s 17.3° 1009.9 hPa 4.7 m/s 49.4 mm
16:00 17.8° 1010.1 hPa 6.8 m/s 49.5 mm 17.8° 1010.1 hPa 7.0 m/s 17.4° 1009.5 hPa 4.6 m/s 49.5 mm
19:00 17.4° 1010.5 hPa 5.1 m/s 49.6 mm 17.5° 1010.5 hPa 5.3 m/s 16.0° 1010.7 hPa 3.1 m/s 49.6 mm
22:00 17.2° 1011.7 hPa 5.5 m/s 49.8 mm 17.4° 1011.8 hPa 5.7 m/s 15.8° 1011.5 hPa 2.8 m/s 49.8 mm
 06:50     16:42    Daglengte: 9:52 Zaterdag 16 Nov
01:00 17.1° 1012.9 hPa 5.8 m/s 50.1 mm 17.2° 1013.0 hPa 6.1 m/s 15.8° 1011.7 hPa 2.8 m/s 50.1 mm
04:00 16.8° 1013.4 hPa 4.5 m/s 50.9 mm 16.9° 1013.6 hPa 4.7 m/s 15.7° 1011.3 hPa 2.7 m/s 50.9 mm
07:00 16.5° 1013.9 hPa 3.2 m/s 51.1 mm 16.6° 1014.2 hPa 3.3 m/s 15.7° 1011.0 hPa 2.5 m/s 51.1 mm
10:00 18.5° 1013.8 hPa 4.1 m/s 51.1 mm 18.6° 1014.0 hPa 4.3 m/s 18.5° 1011.2 hPa 1.9 m/s 51.1 mm
13:00 20.4° 1013.5 hPa 5.2 m/s 51.2 mm 20.5° 1013.9 hPa 5.3 m/s 19.3° 1009.1 hPa 3.8 m/s 51.2 mm
16:00 19.2° 1012.6 hPa 4.4 m/s 51.3 mm 19.2° 1013.1 hPa 4.5 m/s 19.1° 1007.3 hPa 3.8 m/s 51.3 mm
19:00 17.8° 1011.8 hPa 3.6 m/s 51.6 mm 17.9° 1012.3 hPa 3.6 m/s 17.3° 1006.6 hPa 3.8 m/s 51.6 mm
22:00 17.3° 1010.7 hPa 3.5 m/s 51.6 mm 17.3° 1011.2 hPa 3.4 m/s 16.7° 1005.7 hPa 4.4 m/s 51.6 mm
 06:51     16:41    Daglengte: 9:50 Zondag 17 Nov
01:00 16.7° 1009.5 hPa 3.3 m/s 51.6 mm 16.7° 1010.1 hPa 3.2 m/s 16.4° 1003.5 hPa 4.6 m/s 51.6 mm
04:00 16.5° 1008.2 hPa 3.7 m/s 52.7 mm 16.4° 1008.8 hPa 3.2 m/s 17.2° 1002.1 hPa 9.1 m/s 52.7 mm
07:00 16.2° 1007.2 hPa 3.8 m/s 60.3 mm 16.2° 1007.5 hPa 3.2 m/s 16.5° 1003.4 hPa 10.1 m/s 60.3 mm
10:00 18.3° 1006.6 hPa 6.5 m/s 60.4 mm 18.5° 1006.5 hPa 6.6 m/s 16.4° 1007.6 hPa 5.4 m/s 60.4 mm
13:00 20.4° 1005.8 hPa 9.4 m/s 62.6 mm 20.8° 1005.5 hPa 9.9 m/s 16.2° 1009.1 hPa 3.7 m/s 62.6 mm
16:00 18.0° 1007.2 hPa 7.0 m/s 63.3 mm 18.2° 1007.0 hPa 7.4 m/s 15.4° 1009.8 hPa 2.5 m/s 63.3 mm
19:00 15.5° 1008.7 hPa 4.7 m/s 63.4 mm 15.6° 1008.5 hPa 4.9 m/s 14.4° 1011.3 hPa 3.0 m/s 63.4 mm
22:00 14.3° 1010.0 hPa 3.4 m/s 63.4 mm 14.2° 1009.7 hPa 3.6 m/s 14.5° 1013.2 hPa 2.2 m/s 63.4 mm
 06:52     16:40    Daglengte: 9:48 Maandag 18 Nov
01:00 13.0° 1011.2 hPa 2.1 m/s 63.5 mm 12.9° 1010.9 hPa 2.2 m/s 14.5° 1014.3 hPa 1.1 m/s 63.5 mm
04:00 12.5° 1012.7 hPa 2.0 m/s 63.8 mm 12.4° 1012.5 hPa 2.2 m/s 13.6° 1014.7 hPa 0.4 m/s 63.8 mm
07:00 12.1° 1014.2 hPa 2.2 m/s 64.0 mm 12.0° 1014.1 hPa 2.2 m/s 12.9° 1015.4 hPa 1.9 m/s 64.0 mm
10:00 13.7° 1015.4 hPa 2.8 m/s 64.2 mm 13.6° 1015.3 hPa 2.9 m/s 15.3° 1016.2 hPa 2.7 m/s 64.2 mm
13:00 15.2° 1016.4 hPa 3.5 m/s 64.5 mm 15.1° 1016.5 hPa 3.5 m/s 16.3° 1015.1 hPa 3.2 m/s 64.5 mm
16:00 14.5° 1017.1 hPa 2.5 m/s 64.5 mm 14.3° 1017.3 hPa 2.5 m/s 16.1° 1014.6 hPa 3.4 m/s 64.5 mm
19:00 13.7° 1017.9 hPa 1.5 m/s 64.6 mm 13.6° 1018.1 hPa 1.4 m/s 15.3° 1015.1 hPa 2.9 m/s 64.6 mm
22:00 13.1° 1018.0 hPa 1.5 m/s 64.6 mm 12.9° 1018.3 hPa 1.4 m/s 14.3° 1014.9 hPa 2.5 m/s 64.6 mm
 06:53     16:40    Daglengte: 9:47 Dinsdag 19 Nov
01:00 12.5° 1018.1 hPa 1.5 m/s 64.7 mm 12.3° 1018.5 hPa 1.4 m/s 14.6° 1014.0 hPa 2.9 m/s 64.7 mm
04:00 12.2° 1018.0 hPa 2.3 m/s 65.4 mm 12.0° 1018.5 hPa 2.2 m/s 14.3° 1013.1 hPa 2.8 m/s 65.4 mm
07:00 11.9° 1018.0 hPa 3.0 m/s 67.7 mm 11.7° 1018.4 hPa 3.0 m/s 14.0° 1013.0 hPa 2.8 m/s 67.7 mm
13:00 16.5° 1016.7 hPa 5.2 m/s 73.1 mm 16.6° 1017.1 hPa 5.3 m/s 15.9° 1012.3 hPa 3.9 m/s 73.1 mm
19:00 13.6° 1016.0 hPa 2.5 m/s 75.9 mm 13.5° 1016.3 hPa 2.4 m/s 14.5° 1012.7 hPa 3.5 m/s 75.9 mm
 06:55     16:39    Daglengte: 9:44 Woensdag 20 Nov
01:00 12.2° 1016.1 hPa 2.3 m/s 76.4 mm 12.1° 1016.4 hPa 2.5 m/s 13.6° 1012.9 hPa 0.3 m/s 76.4 mm
07:00 12.3° 1015.3 hPa 0.9 m/s 77.5 mm 12.2° 1015.6 hPa 0.8 m/s 12.8° 1012.1 hPa 2.0 m/s 77.5 mm
13:00 14.7° 1014.8 hPa 2.4 m/s 81.6 mm 14.6° 1015.1 hPa 2.3 m/s 15.5° 1011.4 hPa 3.3 m/s 81.6 mm
19:00 12.9° 1015.7 hPa 1.9 m/s 87.6 mm 12.8° 1016.0 hPa 1.9 m/s 14.2° 1012.8 hPa 2.1 m/s 87.6 mm
 06:56     16:38    Daglengte: 9:42 Donderdag 21 Nov
01:00 12.8° 1016.6 hPa 0.5 m/s 87.8 mm 12.8° 1016.8 hPa 0.5 m/s 12.8° 1014.9 hPa 0.5 m/s 87.8 mm
07:00 10.8° 1017.9 hPa 1.4 m/s 87.8 mm 10.7° 1018.1 hPa 1.4 m/s 11.9° 1015.8 hPa 1.7 m/s 87.8 mm
13:00 15.5° 1017.8 hPa 0.7 m/s 87.8 mm 15.5° 1018.0 hPa 0.5 m/s 15.6° 1015.6 hPa 2.6 m/s 87.8 mm
19:00 14.5° 1015.6 hPa 2.5 m/s 88.0 mm 14.5° 1015.6 hPa 2.5 m/s 88.0 mm
 06:57     16:38    Daglengte: 9:41 Vrijdag 22 Nov
01:00 13.5° 1015.0 hPa 1.8 m/s 88.1 mm 13.5° 1015.0 hPa 1.8 m/s 88.1 mm
07:00 11.7° 1011.1 hPa 1.1 m/s 0.2 mm
13:00 17.1° 1011.1 hPa 1.1 m/s 0.5 mm
19:00 13.3° 1012.1 hPa 0.5 m/s 0.6 mm
 06:58     16:37    Daglengte: 9:39 Zaterdag 23 Nov
01:00 12.1° 1013.0 hPa 0.9 m/s 0.1 mm
07:00 11.5° 1013.0 hPa 1.4 m/s 0.3 mm
13:00 17.4° 1012.4 hPa 2.0 m/s 0.2 mm
19:00 13.4° 1012.4 hPa 1.4 m/s 0.7 mm
 06:59     16:37    Daglengte: 9:38 Zondag 24 Nov
01:00 12.7° 1012.3 hPa 1.8 m/s 0.7 mm
07:00 12.3° 1011.9 hPa 1.8 m/s 0.3 mm
13:00 17.3° 1011.6 hPa 2.1 m/s 0.7 mm
19:00 13.8° 1012.1 hPa 1.4 m/s 0.2 mm
 07:00     16:36    Daglengte: 9:36 Maandag 25 Nov
01:00 12.9° 1012.0 hPa 1.4 m/s 0.2 mm
07:00 12.2° 1011.1 hPa 1.9 m/s 0.3 mm
13:00 17.2° 1009.8 hPa 1.8 m/s 0.9 mm
19:00 14.2° 1009.1 hPa 1.4 m/s 0.7 mm
 07:01     16:36    Daglengte: 9:35 Dinsdag 26 Nov
01:00 13.3° 1008.7 hPa 1.2 m/s 1.9 mm
07:00 12.8° 1008.1 hPa 1.3 m/s 1.3 mm
13:00 17.0° 1007.7 hPa 1.9 m/s 1.5 mm
19:00 13.7° 1008.4 hPa 1.4 m/s 0.8 mm
 07:02     16:35    Daglengte: 9:33 Woensdag 27 Nov
01:00 12.9° 1009.3 hPa 1.0 m/s 1.3 mm
07:00 12.1° 1010.1 hPa 0.5 m/s 1.4 mm
FMI Hirlam - 7.5 km EWN WRFDA - 12 km DWD ICON - 7 km GFS - 25 km Basiskaart






























































Updatetijd (Europe/Amsterdam) Resolutie Lengte Stap
FMI Hirlam 06:00, 12:00, 18:00, 00:00 7.5 km 49h 1h
EWN WRFDA 08:45, 14:45, 20:45, 02:45 12 km 73h 1h
DWD ICON 04:45, 10:45, 16:45, 22:45 7 km 75h 1h
GFS 07:45, 13:45, 19:45, 01:45 25 km 237h 3h
30+ mm
25-30 mm
20-25 mm
15-20 mm
10-15 mm
6-10 mm
4-6 mm
2-4 mm
1-2 mm
0.5-1 mm
0.2-0.5 mm
0.1-0.2 mm
30+ mm
25-30 mm
20-25 mm
15-20 mm
10-15 mm
6-10 mm
4-6 mm
2-4 mm
1-2 mm
0.5-1 mm
0.2-0.5 mm
0.1-0.2 mm
Sneeuwval
Natte sneeuw
Hagel
Vorst
30+ mm
25-30 mm